Printer-friendly version

IAU Minor Planet Center

Minor Planet Center

MPEC 2001-C31: 2000 FM10

The following Minor Planet Electronic Circular may be linked-to from your own Web pages, but must not otherwise be redistributed electronically.


Read MPEC 2001-C30 Read MPEC 2001-C32


M.P.E.C. 2001-C31                                Issued 2001 Feb. 14, 15:03 UT

     The Minor Planet Electronic Circulars contain information on unusual
         minor planets and routine data on comets.  They are published
   on behalf of Commission 20 of the International Astronomical Union by the
          Minor Planet Center, Smithsonian Astrophysical Observatory,
                          Cambridge, MA 02138, U.S.A.

             Prepared using the Tamkin Foundation Computer Network

                              MPC@CFA.HARVARD.EDU
          URL http://cfa-www.harvard.edu/iau/mpc.html  ISSN 1523-6714

                                   2000 FM10

                           Revision to MPEC 2000-G07

Observations:
     K00F10M  C2001 02 11.75175 03 18 49.85 +39 09 49.4          17.8 R      046
     K00F10M  C2001 02 11.75258 03 18 50.33 +39 09 50.0                      046
     K00F10M  C2001 02 11.75330 03 18 50.69 +39 09 51.0                      046
     K00F10M  C2001 02 11.75410 03 18 51.16 +39 09 51.6          17.9 R      046
     K00F10M  C2001 02 11.75491 03 18 51.58 +39 09 51.8                      046
     K00F10M  C2001 02 11.75576 03 18 52.04 +39 09 51.9                      046
     K00F10M  C2001 02 11.75869 03 18 53.62 +39 09 54.3                      046
     K00F10M  C2001 02 11.76212 03 18 55.48 +39 09 56.9          18.0 R      046
     K00F10M  C2001 02 13.10185 03 30 54.11 +39 23 22.7          18.0        704
     K00F10M  C2001 02 13.11558 03 31 01.21 +39 23 28.5          18.4        704
     K00F10M  C2001 02 13.12929 03 31 08.29 +39 23 34.1          18.8        704
     K00F10M  C2001 02 13.14302 03 31 15.35 +39 23 40.8          18.8        704
     K00F10M  C2001 02 13.15674 03 31 22.53 +39 23 47.3          18.3        704

Observer details:
046 Klet.  Observers J. Ticha, M. Tichy.  0.57-m f/5.2 reflector + CCD.
704 Lincoln Laboratory ETS, New Mexico.  Observers M. Blythe, F. Shelly,
    M. Bezpalko, R. Huber, L. Manguso, S. Adams.  Measurers J. Stuart,
    R. Sayer, J. B. Evans, H. Viggh.  1.0-m f/2.15 reflector + CCD.

First and last observations above in comparison with prediction:
Residuals in seconds of arc (or two decimals in degrees), reference and Delta-T
010211 046 0.03+ 0.02+    010213 704 0.03+ 0.02+    MPO   739   -0.013 day

Orbital elements:
2000 FM10
Epoch 2001 Apr. 1.0 TT = JDT 2452000.5                  Marsden
M  59.75903              (2000.0)            P               Q
n   0.54676426     Peri.  343.75543     +0.99804979     -0.03910241
a   1.4811622      Node    18.69011     +0.05886399     +0.84898278
e   0.6807273      Incl.    8.73377     -0.02077599     +0.52697177
P   1.80           H   18.2           G   0.15           U   5
Residuals in seconds of arc
000330 691  0.5+  0.2-    000402 691  0.3+  0.1-    010211 046  0.2+  0.2-
000330 691  0.3+  0.2+    000403 691  0.2+  0.3-    010211 046  0.2-  0.3+
000330 691  0.1+  0.1-    000403 691  0.2+  0.4-    010211 046  0.2+  0.3+
000330 691  0.2-  0.4-    000403 691  0.2+  0.2-    010211 046  0.0   0.1-
000330 691  0.4-  0.4-    000407 691  0.4-  0.3-    010211 046  0.0   0.6-
000330 691  0.0   0.3-    000407 691  0.1+  0.2-    010211 046  0.1-  0.2-
000401 691  0.5+  0.9+    000407 691  0.2+  0.1-    010211 046  0.1-  0.0
000401 691  1.1+  0.8+    000412 691  0.1+  0.1-    010213 704  0.2+  0.7+
000401 691  1.2-  1.2+    000412 691  0.3-  0.1-    010213 704  0.2+  0.1+
000401 691  0.3-  0.1+    000412 691  1.1-  0.3-    010213 704  0.0   0.5-
000401 691  0.2-  0.4-    000503 691  0.2-  0.0     010213 704  0.5-  0.0
000401 691  0.1+  0.1+    000503 691  0.7+  0.3-    010213 704  0.4+  0.4+
000402 691  0.3+  0.0     000503 691  0.1+  0.3-
000402 691  0.4-  0.9+    010211 046  0.2-  0.2-

Ephemeris:
2000 FM10                a,e,i = 1.48, 0.68, 9                   q = 0.4729
Date    TT    R. A. (2000) Decl.     Delta      r     Elong.  Phase     V
2001 02 10    03 02.36   +38 44.0    0.475    1.116    92.8    62.0    19.0
2001 02 15    03 46.96   +39 34.2    0.532    1.175    96.7    56.6    19.2
2001 02 20    04 24.33   +39 29.4    0.596    1.232    99.0    52.5    19.5
2001 02 25    04 55.41   +38 54.3    0.667    1.287   100.1    49.2    19.7
2001 03 02    05 21.46   +38 04.1    0.742    1.340   100.3    46.7    20.0
2001 03 07    05 43.65   +37 07.2    0.821    1.392    99.9    44.6    20.2
2001 03 12    06 02.88   +36 08.1    0.903    1.442    98.9    42.9    20.4
2001 03 17    06 19.88   +35 08.9    0.987    1.491    97.5    41.4    20.7
2001 03 22    06 35.16   +34 10.7    1.074    1.538    95.9    40.1    20.9
2001 03 27    06 49.13   +33 14.0    1.162    1.583    94.0    39.0    21.1
2001 04 01    07 02.06   +32 18.9    1.252    1.627    91.9    37.9    21.3
2001 04 06    07 14.17   +31 25.1    1.342    1.670    89.7    36.8    21.4
2001 04 11    07 25.61   +30 32.7    1.433    1.711    87.4    35.8    21.6
2001 04 16    07 36.50   +29 41.3    1.525    1.751    85.0    34.8    21.8
2001 04 21    07 46.94   +28 50.9    1.617    1.790    82.5    33.8    21.9

Brian G. Marsden             (C) Copyright 2001 MPC           M.P.E.C. 2001-C31

Read MPEC 2001-C30 Read MPEC 2001-C32


Our Web policy. Index to the CBAT/MPC/ICQ pages.


Valid HTML 4.01!